Location: Karcze
(52.0945°N, 22.4786°E)
Time: 05:03:16
(UTC+00:00)

A-11 Canister half - All Passes

Search period start: 01 August 2021 00:00
Search period end: 11 August 2021 00:00
Orbit: 1513 x 1687 km, 47.2° (Epoch: 31 July)

Date Brightness Start Highest point End Pass type
(mag) Time Alt. Az. Time Alt. Az. Time Alt. Az.
01 Aug - 12:56:42 10° SE 12:58:34 11° ESE 13:00:25 10° ESE daylight
01 Aug - 14:52:30 10° SSW 15:00:58 35° SE 15:09:42 10° E daylight
01 Aug - 16:55:07 10° WSW 17:04:48 62° SSE 17:14:44 10° E daylight
01 Aug - 18:59:26 10° W 19:09:19 65° S 19:19:21 10° ESE visible
01 Aug - 21:04:12 10° W 21:13:25 42° SSW 21:22:41 10° SSE visible
01 Aug - 23:10:56 10° W 23:16:17 16° SW 23:21:38 10° SSW visible
02 Aug - 14:29:48 10° SSW 14:38:08 34° SE 14:46:42 10° E daylight
02 Aug - 16:32:15 10° WSW 16:41:52 61° SSE 16:51:47 10° E daylight
02 Aug - 18:36:32 10° W 18:46:23 66° S 18:56:25 10° ESE visible
02 Aug - 20:41:15 10° W 20:50:32 43° SSW 20:59:52 10° SE visible
02 Aug - 22:47:42 10° W 22:53:29 17° SW 22:59:16 10° SSW visible
03 Aug - 14:07:07 10° SSW 14:15:18 32° SE 14:23:42 10° E daylight
03 Aug - 16:09:24 10° WSW 16:18:58 60° SSE 16:28:50 10° E daylight
03 Aug - 18:13:37 10° W 18:23:27 67° S 18:33:30 10° ESE daylight
03 Aug - 20:18:19 10° W 20:27:39 45° SSW 20:37:05 10° SE visible
03 Aug - 22:24:30 10° W 22:30:40 18° SW 22:36:52 10° SSW visible
04 Aug - 13:44:27 10° SSW 13:52:27 31° SE 14:00:41 10° E daylight
04 Aug - 15:46:32 10° WSW 15:56:03 58° SSE 16:05:53 10° E daylight
04 Aug - 17:50:42 10° W 18:00:31 67° S 18:10:34 10° ESE daylight
04 Aug - 19:55:22 10° W 20:04:46 47° SSW 20:14:15 10° SE visible
04 Aug - 22:01:21 10° W 22:07:52 20° SW 22:14:24 10° S visible
05 Aug - 13:21:49 10° SSW 13:29:38 29° SE 13:37:39 10° E daylight
05 Aug - 15:23:42 10° SW 15:33:09 57° SSE 15:42:56 10° E daylight
05 Aug - 17:27:47 10° W 17:37:36 67° S 17:47:38 10° ESE daylight
05 Aug - 19:32:25 10° W 19:41:52 48° SSW 19:51:26 10° SE visible
05 Aug - 21:38:14 10° W 21:45:03 21° SW 21:51:54 10° S visible
06 Aug - 12:59:12 10° S 13:06:48 27° SE 13:14:37 10° E daylight
06 Aug - 15:00:53 10° SW 15:10:15 56° SSE 15:19:58 10° E daylight
06 Aug - 17:04:53 10° W 17:14:39 68° S 17:24:42 10° ESE daylight
06 Aug - 19:09:30 10° W 19:18:58 50° SSW 19:28:35 10° SE visible
06 Aug - 21:15:09 10° W 21:22:13 22° SW 21:29:21 10° S visible
07 Aug - 12:36:36 10° S 12:43:59 26° SE 12:51:34 10° E daylight
07 Aug - 14:38:03 10° SW 14:47:21 54° SSE 14:57:00 10° E daylight
07 Aug - 16:41:59 10° W 16:51:44 68° S 17:01:45 10° ESE daylight
07 Aug - 18:46:35 10° W 18:56:04 51° SSW 19:05:44 10° SE visible
07 Aug - 20:52:05 10° W 20:59:25 23° SW 21:06:47 10° S visible
08 Aug - 12:14:01 10° S 12:21:11 24° SE 12:28:31 10° E daylight
08 Aug - 14:15:14 10° SW 14:24:28 53° SSE 14:34:02 10° E daylight
08 Aug - 16:19:05 10° W 16:28:48 68° S 16:38:48 10° E daylight
08 Aug - 18:23:39 10° W 18:33:10 52° SSW 18:42:53 10° SE daylight
08 Aug - 20:29:02 10° W 20:36:34 25° SW 20:44:12 10° S visible
09 Aug - 11:51:28 10° S 11:58:23 23° SE 12:05:27 10° E daylight
09 Aug - 13:52:25 10° SW 14:01:35 51° SSE 14:11:05 10° E daylight
09 Aug - 15:56:12 10° WSW 16:05:53 68° S 16:15:52 10° E daylight
09 Aug - 18:00:44 10° W 18:10:16 54° SSW 18:20:01 10° SE daylight
09 Aug - 20:06:01 10° W 20:13:45 26° SW 20:21:33 10° S visible
10 Aug - 11:28:57 10° S 11:35:35 22° SE 11:42:21 10° E daylight
10 Aug - 13:29:38 10° SW 13:38:42 50° SSE 13:48:08 10° E daylight
10 Aug - 15:33:19 10° WSW 15:42:57 68° S 15:52:56 10° E daylight
10 Aug - 17:37:49 10° W 17:47:22 55° SSW 17:57:08 10° SE daylight
10 Aug - 19:43:00 10° W 19:50:54 28° SW 19:58:55 10° S visible
